F0657D65 Weather Reports


Display with metric or nautical units.
time (UTC)temp
F
wind
direction
speed
MPH
gust
MPH
rain 1hr
in
rain 24hr
in
rain mn
in
humidity
%
barometer
mb
20260506104548 54 115 1.0 3.0 0.00 0.06 0.03 81 1011.5
20260506103047 54 44 2.0 5.0 0.00 0.06 0.03 81 1011.5
20260506101545 54 319 1.0 9.0 0.00 0.06 0.03 81 1011.7
20260506100046 53 346 0.0 4.0 0.00 0.06 0.03 85 1011.7
20260506094559 53 81 0.0 4.0 0.00 0.06 0.03 85 1011.7
20260506093043 52 355 1.0 4.0 0.00 0.06 0.03 85 1011.5
20260506091539 52 304 0.0 3.0 0.00 0.06 0.03 86 1011.5
20260506090037 52 284 1.0 5.0 0.00 0.06 0.03 88 1011.4
20260506084537 53 22 1.0 5.0 0.00 0.06 0.03 86 1011.4
20260506083033 53 86 1.0 5.0 0.00 0.06 0.03 89 1011.2
20260506081531 52 348 0.0 3.0 0.00 0.06 0.03 91 1011.1
20260506073019 49 33 0.0 4.0 0.00 0.06 0.03 93 1010.9
20260506071516 48 46 1.0 4.0 0.00 0.06 0.03 94 1010.6
20260506061508 47 24 1.0 6.0 0.00 0.06 0.03 96 1010.3
20260506044550 46 150 0.0 3.0 0.00 0.06 0.03 97 1009.9
20260506043042 46 196 0.0 3.0 0.00 0.06 0.03 97 1009.8
20260506041541 46 38 0.0 3.0 0.00 0.06 0.03 97 1009.9
20260506040055 46 18 0.0 3.0 0.00 0.06 0.03 97 1009.9
20260506034538 47 21 0.0 3.0 0.00 0.06 0.03 97 1009.9
20260506033036 47 300 0.0 5.0 0.00 0.06 0.03 97 1009.8
20260506031551 47 239 0.0 3.0 0.00 0.06 0.03 97 1009.9
20260506030034 47 77 0.0 3.0 0.01 0.06 0.03 97 1009.8
20260506024533 47 43 0.0 3.0 0.01 0.06 0.03 97 1009.7
20260506023034 47 73 0.0 2.0 0.01 0.06 0.03 97 1009.7
20260506021533 47 26 0.0 2.0 0.01 0.06 0.03 97 1009.7
20260506020032 47 346 0.0 9.0 0.00 0.06 0.02 97 1009.6
20260506014533 47 11 0.0 0.0 0.00 0.06 0.02 97 1009.7
20260506013030 47 308 0.0 2.0 0.00 0.06 0.02 97 1009.7
20260506011530 47 323 0.0 4.0 0.00 0.06 0.02 97 1009.6
20260506010029 48 70 0.0 2.0 0.00 0.06 0.02 97 1009.5
20260506004528 48 302 0.0 3.0 0.00 0.06 0.02 97 1009.5
20260506003026 48 50 0.0 2.0 0.01 0.06 0.02 97 1009.6
20260506001525 48 58 0.0 3.0 0.01 0.06 0.02 97 1009.6
20260506000024 48 19 0.0 3.0 0.02 0.06 0.02 97 1009.7
20260505234522 48 37 0.0 4.0 0.02 0.06 0.02 97 1009.7
20260505233021 49 26 0.0 3.0 0.01 0.05 0.02 96 1009.8
20260505231528 49 82 0.0 2.0 0.01 0.05 0.02 96 1009.9
20260505230026 49 14 0.0 3.0 0.01 0.04 0.01 96 1010.0
20260505224515 49 9 0.0 1.0 0.01 0.04 0.01 96 1009.8
20260505223016 50 163 0.0 2.0 0.01 0.04 0.01 96 1009.8
20260505221512 50 45 0.0 2.0 0.02 0.04 0.01 96 1009.6
20260505220010 50 49 0.0 4.0 0.02 0.03 0.03 96 1009.7
20260505214509 51 177 0.0 2.0 0.03 0.03 0.03 96 1009.6
20260505213008 51 273 0.0 2.0 0.03 0.03 0.03 96 1009.7
20260505211507 51 76 0.0 4.0 0.02 0.02 0.02 95 1009.7
20260505210006 52 28 1.0 3.0 0.02 0.02 0.02 95 1009.9
20260505204506 52 107 1.0 3.0 0.00 0.00 0.00 94 1009.8
20260505203006 52 84 0.0 3.0 0.00 0.00 0.00 93 1009.7
20260505201506 53 298 0.0 2.0 0.00 0.00 0.00 94 1009.6
20260505200007 53 5 0.0 3.0 0.00 0.00 0.00 94 1009.4
20260505194506 53 38 0.0 0.0 0.00 0.00 0.00 95 1009.3
20260505193004 53 103 0.0 0.0 0.00 0.00 0.00 94 1009.1
20260505191504 54 103 0.0 1.0 0.00 0.00 0.00 94 1009.0
20260505190003 54 103 0.0 1.0 0.00 0.02 0.00 94 1008.9
20260505184502 54 109 0.0 3.0 0.00 0.02 0.00 94 1008.9
20260505183002 54 71 0.0 3.0 0.00 0.02 0.00 94 1008.9
20260505181502 55 56 0.0 3.0 0.00 0.02 0.00 94 1008.8
20260505180003 55 81 0.0 0.0 0.00 0.03 0.00 93 1008.8
20260505174501 55 81 0.0 1.0 0.00 0.03 0.00 93 1008.8
20260505173100 55 81 0.0 3.0 0.00 0.03 0.00 93 1008.8
20260505171606 55 84 0.0 2.0 0.00 0.03 0.00 93 1008.8
20260505170059 55 84 0.0 1.0 0.00 0.16 0.00 93 1008.9
20260505164620 55 84 0.0 1.0 0.00 0.16 0.00 93 1008.7
20260505163107 55 68 0.0 3.0 0.00 0.16 0.00 93 1008.8
20260505161615 55 74 0.0 2.0 0.00 0.16 0.00 92 1008.8
20260505153055 56 24 0.0 4.0 0.00 0.28 0.00 93 1008.8
20260505151555 55 81 0.0 1.0 0.00 0.28 0.00 92 1008.9
20260505130105 53 309 1.0 4.0 0.00 0.28 0.00 96 1009.7
20260505124551 53 79 0.0 4.0 0.00 0.28 0.00 96 1009.6
20260505123046 52 329 0.0 2.0 0.00 0.28 0.00 97 1009.7
20260505121544 52 321 0.0 4.0 0.00 0.28 0.00 97 1009.7
20260505120045 52 100 1.0 5.0 0.00 0.28 0.00 97 1009.7
20260505114539 52 99 1.0 5.0 0.00 0.28 0.00 98 1009.8
20260505113041 52 57 0.0 6.0 0.00 0.28 0.00 98 1010.1
20260505111539 52 26 0.0 3.0 0.00 0.28 0.00 98 1010.1